This is the latest recevied weather packets stored in our database for station/object JR4VEV-13. If no packets are shown the sender has not sent any weather packets the latest 10 day(s).
| Time | Temp. | Humidity | Pressure | Rain* | Wind** | Luminosity | Snow |
|---|---|---|---|---|---|---|---|
| 1777192786 | 15° C | 95% | 1013.6 hPa | 2.79 mm | - | - | - |
| 1777192186 | 15° C | 95% | 1013.4 hPa | 2.79 mm | - | - | - |
| 1777191587 | 15° C | 95% | 1013.3 hPa | 2.79 mm | - | - | - |
| 1777191395 | 15° C | 95% | 1013.4 hPa | 2.29 mm | - | - | - |
| 1777190987 | 15° C | 94% | 1013.4 hPa | 2.29 mm | - | - | - |
| 1777190387 | 15° C | 94% | 1013.5 hPa | 2.03 mm | - | - | - |
| 1777189787 | 15° C | 94% | 1013.5 hPa | 1.27 mm | - | - | - |
| 1777189186 | 15° C | 94% | 1013.6 hPa | 1.52 mm | - | - | - |
| 1777188587 | 15° C | 94% | 1013.7 hPa | 1.27 mm | - | - | - |
| 1777187987 | 15° C | 93% | 1013.6 hPa | 1.02 mm | - | - | - |
| 1777187386 | 15.56° C | 93% | 1013.5 hPa | 0.76 mm | - | - | - |
| 1777186787 | 15.56° C | 93% | 1013.6 hPa | 0.51 mm | - | - | - |
| 1777186186 | 15.56° C | 92% | 1013.5 hPa | 0.76 mm | - | - | - |
| 1777185587 | 15.56° C | 91% | 1013.6 hPa | 0.76 mm | - | - | - |
| 1777184986 | 15.56° C | 91% | 1013.4 hPa | 0.76 mm | - | - | - |
| 1777184386 | 16.11° C | 90% | 1013.7 hPa | 0.51 mm | - | - | - |
| 1777183787 | 16.11° C | 90% | 1013.8 hPa | 1.02 mm | - | - | - |
| 1777183294 | 16.11° C | 88% | 1013.9 hPa | 0.76 mm | - | - | - |
| 1777183187 | 16.11° C | 88% | 1013.7 hPa | 0.76 mm | - | - | - |
| 1777182587 | 16.67° C | 87% | 1013.9 hPa | 0.51 mm | - | - | - |
| 1777181988 | 17.22° C | 86% | 1013.9 hPa | 0.51 mm | - | - | - |
| 1777181387 | 17.22° C | 84% | 1014 hPa | 0.51 mm | - | - | - |
| 1777180786 | 17.78° C | 81% | 1014.1 hPa | 0.51 mm | - | - | - |
| 1777180187 | 18.89° C | 78% | 1014.4 hPa | 0 mm | - | - | - |
| 1777179586 | 18.89° C | 72% | 1014.5 hPa | 0 mm | - | - | - |
* Rain latest hour (hover to see other rain measurements)
** Current wind speed in m/s (hover to see current wind gust speed)